Station BSBM4 - Big Sable Point, MI Image indicating link to RSS feed of recent meteorological observations for station BSBM4


Conditions at BSBM4 as of
(11:40 pm EDT on 06/12/2024)
0340 GMT on 06/13/2024:
     

Click on the graph icon in the table below to see a time series plot of the last five days of that observation.

5-day plot - Wind Direction Wind Direction (WDIR): S ( 170 deg true )
5-day plot - Wind Speed Wind Speed (WSPD): 12.0 kts
5-day plot - Wind Gust Wind Gust (GST): 15.9 kts
5-day plot - Atmospheric Pressure Atmospheric Pressure (PRES):29.83 in
5-day plot - Air Temperature Air Temperature (ATMP): 64.4 °F
5-day plot - Wind Speed at 10 Meters Wind Speed at 10 meters (WSPD10M): 11.7 kts
5-day plot - Wind Speed at 20 Meters Wind Speed at 20 meters (WSPD20M): 13.6 kts
5-day plot -  Wind Speed, Wind Gust and Atmospheric Pressure Combined plot of Wind Speed, Gust, and Air Pressure
Previous observations
TIME
(EDT)
5-day plot - Wind Direction
WDIR
 
5-day plot - Wind Speed
WSPD
kts
5-day plot - Wind Gust
GST
kts
5-day plot - Wave Height
WVHT
ft
5-day plot - Dominant Wave Period
DPD
sec
5-day plot - Average Wave Period
APD
sec
5-day plot - Mean Wave Direction
MWD
 
5-day plot - Atmospheric Pressure
PRES
in
5-day plot - Pressure Tendency
PTDY
in
5-day plot - Air Temperature
ATMP
°F
5-day plot - Water Temperature
WTMP
°F
5-day plot - Dew Point
DEWP
°F
5-day plot - Salinity
SAL
psu
5-day plot - Visibility
VIS
nmi
5-day plot - Tide (above MLLW)
TIDE
ft
2024-06-12 11:30 pm S 11.1 14.0----29.83- 63.3-----
2024-06-12 11:20 pm S 8.9 11.1----29.84- 60.8-----
2024-06-12 11:10 pmSSW 8.0 11.1----29.84- 62.8-----
2024-06-12 11:00 pm S 8.0 14.0----29.83-0.02 69.3-----
2024-06-12 10:50 pm S 9.9 15.0----29.83- 70.3-----
2024-06-12 10:40 pm S 12.0 15.0----29.83- 70.9-----
2024-06-12 10:30 pm S 11.1 15.9----29.83- 71.6-----
2024-06-12 10:20 pmSSE 8.9 15.9----29.83- 72.0-----
2024-06-12 10:10 pmSSE 11.1 15.9----29.82- 71.6-----
2024-06-12 10:00 pmSSE 11.1 15.9----29.82-0.04 71.1-----
2024-06-12 09:50 pmSSE 12.0 17.1----29.81- 70.3-----
2024-06-12 09:40 pm S 9.9 13.0----29.81- 70.9-----
2024-06-12 09:30 pmSSE 9.9 14.0----29.81- 70.2-----
2024-06-12 09:20 pmSSE 11.1 15.9----29.82- 70.5-----
2024-06-12 09:10 pm S 12.0 18.1----29.82- 70.9-----
2024-06-12 09:00 pm S 14.0 18.1----29.82-0.05 70.9-----
2024-06-12 08:50 pmSSE 13.0 18.1----29.82- 70.5-----
2024-06-12 08:40 pmSSE 14.0 18.1----29.83- 70.5-----
2024-06-12 08:30 pmSSE 13.0 20.0----29.83- 70.2-----
2024-06-12 08:20 pm S 13.0 15.9----29.84- 68.9-----
2024-06-12 08:10 pm S 12.0 17.1----29.84- 67.5-----
2024-06-12 08:00 pm S 11.1 15.0----29.85-0.06 65.3-----
2024-06-12 07:50 pm S 9.9 15.9----29.86- 66.9-----
2024-06-12 07:40 pm S 13.0 19.0----29.85- 69.3-----
2024-06-12 07:30 pmSSE 12.0 17.1----29.85- 69.3-----
2024-06-12 07:20 pmSSE 11.1 15.9----29.86- 67.5-----
2024-06-12 07:10 pm S 12.0 15.9----29.86- 67.5-----
2024-06-12 07:00 pm S 14.0 17.1----29.86-0.05 65.8-----
2024-06-12 06:50 pmSSE 11.1 14.0----29.86- 65.1-----
2024-06-12 06:40 pm S 12.0 15.9----29.87- 64.9-----
2024-06-12 06:30 pm S 13.0 18.1----29.86- 65.3-----
2024-06-12 06:20 pm S 12.0 18.1----29.87- 64.4-----
2024-06-12 06:10 pm S 9.9 18.1----29.88- 64.4-----
2024-06-12 06:00 pm S 12.0 19.0----29.87-0.05 64.9-----
2024-06-12 05:50 pm S 14.0 20.0----29.88- 66.0-----
2024-06-12 05:40 pm S 13.0 24.1----29.88- 66.6-----
2024-06-12 05:30 pm S 14.0 20.0----29.88- 66.4-----
2024-06-12 05:20 pm S 13.0 20.0----29.89- 66.2-----
2024-06-12 05:10 pm S 13.0 18.1----29.90- 66.0-----
2024-06-12 05:00 pm S 12.0 17.1----29.91-0.02 66.0-----
2024-06-12 04:50 pm S 11.1 15.9----29.91- 65.8-----
2024-06-12 04:40 pm S 11.1 15.9----29.90- 65.7-----
2024-06-12 04:30 pm S 12.0 15.9----29.90- 65.1-----
2024-06-12 04:20 pm S 11.1 15.9----29.90- 65.8-----
2024-06-12 04:10 pm S 11.1 15.9----29.91- 64.4-----
2024-06-12 04:00 pm S 9.9 15.9----29.91-0.03 64.4-----
2024-06-12 03:50 pm S 9.9 15.0----29.91- 64.0-----
2024-06-12 03:40 pm S 8.9 13.0----29.91- 64.6-----
2024-06-12 03:30 pm S 9.9 14.0----29.92- 65.1-----
2024-06-12 03:20 pm S 8.9 15.0----29.92- 65.1-----
2024-06-12 03:10 pm S 9.9 15.0----29.92- 65.7-----
2024-06-12 03:00 pm S 11.1 14.0----29.92-0.01 65.8-----
2024-06-12 02:50 pm S 8.9 15.9----29.92- 66.7-----
2024-06-12 02:40 pm S 9.9 17.1----29.91- 66.9-----
2024-06-12 02:30 pm S 9.9 17.1----29.92- 66.0-----
2024-06-12 02:20 pm S 11.1 17.1----29.92- 65.3-----
2024-06-12 02:10 pm S 11.1 15.9----29.92- 64.8-----
2024-06-12 02:00 pm S 8.0 17.1----29.93+0.01 64.2-----
2024-06-12 01:50 pm S 11.1 17.1----29.93- 64.8-----
2024-06-12 01:40 pm S 9.9 15.0----29.93- 64.6-----
2024-06-12 01:30 pm S 11.1 15.9----29.93- 63.5-----
2024-06-12 01:20 pm S 9.9 14.0----29.93- 63.5-----
2024-06-12 01:10 pm S 9.9 15.0----29.94- 63.9-----
2024-06-12 01:00 pm S 8.0 14.0----29.94+0.02 63.3-----
2024-06-12 12:50 pm S 8.9 13.0----29.94- 63.0-----
2024-06-12 12:40 pm S 8.0 15.0----29.94- 63.0-----
2024-06-12 12:30 pm S 11.1 17.1----29.94- 62.2-----
2024-06-12 12:20 pm S 11.1 15.0----29.93- 63.1-----
2024-06-12 12:10 pm S 9.9 15.0----29.93- 62.1-----
2024-06-12 12:00 pm S 12.0 19.0----29.93+0.01 63.1-----
2024-06-12 11:50 am S 12.0 15.9----29.93- 62.8-----
2024-06-12 11:40 am S 9.9 19.0----29.93- 63.0-----
2024-06-12 11:30 am S 12.0 18.1----29.92- 63.9-----
2024-06-12 11:20 am S 11.1 18.1----29.92- 63.5-----
2024-06-12 11:10 am S 13.0 20.0----29.92- 63.5-----
2024-06-12 11:00 am S 12.0 18.1----29.92+0.00 63.3-----
2024-06-12 10:50 am S 15.0 22.0----29.92- 62.6-----
2024-06-12 10:40 am S 14.0 19.0----29.92- 63.0-----
2024-06-12 10:30 am S 12.0 20.0----29.92- 62.8-----
2024-06-12 10:20 am S 12.0 18.1----29.92- 62.2-----
2024-06-12 10:10 am S 11.1 15.9----29.92- 61.9-----
2024-06-12 10:00 am S 9.9 15.9----29.92+0.01 61.7-----
2024-06-12 09:50 am S 9.9 14.0----29.92- 61.7-----
2024-06-12 09:40 am S 8.9 13.0----29.93- 61.2-----
2024-06-12 09:30 am S 8.0 14.0----29.93- 61.9-----
2024-06-12 09:20 am S 8.9 15.0----29.93- 62.2-----
2024-06-12 09:10 am S 11.1 15.9----29.93- 62.8-----
2024-06-12 09:00 am S 12.0 17.1----29.92+0.01 62.8-----
2024-06-12 08:50 am S 12.0 15.9----29.92- 63.5-----
2024-06-12 08:40 am S 11.1 15.0----29.93- 63.5-----
2024-06-12 08:30 am S 9.9 14.0----29.93- 63.3-----
2024-06-12 08:20 am S 8.9 14.0----29.93- 63.5-----
2024-06-12 08:10 am S 8.9 15.0----29.92- 64.2-----
2024-06-12 08:00 am S 11.1 15.0----29.92+0.02 64.2-----
2024-06-12 07:50 am S 8.9 14.0----29.91- 64.0-----
2024-06-12 07:40 am S 9.9 14.0----29.91- 64.0-----
2024-06-12 07:30 am S 11.1 14.0----29.91- 63.7-----
2024-06-12 07:20 am S 11.1 15.9----29.91- 63.3-----
2024-06-12 07:10 am S 11.1 15.0----29.91- 63.1-----
2024-06-12 07:00 amSSE 12.0 17.1----29.91+0.01 62.6-----
2024-06-12 06:50 amSSE 9.9 14.0----29.91- 61.3-----
2024-06-12 06:40 am S 11.1 15.0----29.91- 60.4-----
2024-06-12 06:30 am S 11.1 15.0----29.91- 60.6-----
2024-06-12 06:20 am S 11.1 17.1----29.91- 60.6-----
2024-06-12 06:10 am S 12.0 17.1----29.91- 60.4-----
2024-06-12 06:00 am S 13.0 18.1----29.91+0.01 60.6-----
2024-06-12 05:50 am S 15.0 20.0----29.90- 61.3-----
2024-06-12 05:40 am S 15.0 20.0----29.90- 61.5-----
2024-06-12 05:30 am S 15.0 22.0----29.90- 61.5-----
2024-06-12 05:20 am S 15.0 21.0----29.90- 61.7-----
2024-06-12 05:10 am S 15.0 20.0----29.90- 61.2-----
2024-06-12 05:00 am S 14.0 19.0----29.90-0.01 60.3-----
2024-06-12 04:50 am S 13.0 15.9----29.90- 58.5-----
2024-06-12 04:40 am S 8.9 17.1----29.90- 60.4-----
2024-06-12 04:30 am S 9.9 15.0----29.90- 60.6-----
2024-06-12 04:20 am S 13.0 18.1----29.90- 61.5-----
2024-06-12 04:10 am S 13.0 15.9----29.90- 61.0-----
2024-06-12 04:00 am S 13.0 17.1----29.90-0.03 61.7-----
2024-06-12 03:50 am S 12.0 15.9----29.91- 62.4-----
2024-06-12 03:40 am S 8.9 19.0----29.91- 62.6-----
2024-06-12 03:30 am S 14.0 17.1----29.91- 62.8-----
2024-06-12 03:20 amSSE 13.0 15.9----29.91- 62.6-----
2024-06-12 03:10 amSSE 11.1 17.1----29.91- 62.2-----
2024-06-12 03:00 amSSE 11.1 15.9----29.90-0.03 62.2-----
2024-06-12 02:50 amSSE 12.0 15.9----29.90- 62.4-----
2024-06-12 02:40 amSSE 12.0 17.1----29.91- 62.4-----
2024-06-12 02:30 amSSE 12.0 15.9----29.91- 62.1-----
2024-06-12 02:20 amSSE 8.9 15.9----29.91- 62.1-----
2024-06-12 02:10 amSSE 9.9 15.0----29.91- 61.9-----
2024-06-12 02:00 amSSE 9.9 13.0----29.91-0.03 61.5-----
2024-06-12 01:50 amSSE 8.9 13.0----29.91- 61.3-----
2024-06-12 01:40 amSSE 8.9 13.0----29.92- 61.0-----
2024-06-12 01:30 amSSE 8.0 11.1----29.91- 60.4-----
2024-06-12 01:20 amSSE 7.0 9.9----29.92- 60.6-----
2024-06-12 01:10 amSSE 6.0 8.9----29.93- 60.6-----
2024-06-12 01:00 amSSE 7.0 9.9----29.93-0.02 60.4-----
2024-06-12 12:50 amSSE 5.1 8.0----29.93- 60.3-----
2024-06-12 12:40 amSSE 5.1 8.9----29.93- 60.6-----
2024-06-12 12:30 am SE 6.0 8.0----29.93- 61.0-----
2024-06-12 12:20 am SE 5.1 8.9----29.93- 61.7-----
2024-06-12 12:10 amSSE 6.0 9.9----29.93- 61.9-----
2024-06-12 12:00 amSSE 7.0 11.1----29.93-0.02 61.9-----
2024-06-11 11:50 pmSSE 8.0 12.0----29.93- 61.7-----